Tracking 29892 objects as of 21-Nov-2024
HD Live streaming from Space Station
objects crossing your sky now

ATLAS 5 CENTAUR DEB

Track ATLAS 5 CENTAUR DEB now!


NORAD ID: 44010
Int'l Code: 2014-055BR
Perigee: 8,451.9 km
Apogee: 35,405.8 km
Inclination: 19.7 °
Period: 789.7 minutes
Semi major axis: 28299 km
RCS: Unknown
Launch date: September 17, 2014
Source: United States (US)
Launch site: AIR FORCE EASTERN TEST RANGE (AFETR)

Note: This is SATELLITE DEBRIS
Your satellite tracking list
Your tracking list is empty




NASA's NSSDC Master Catalog

Two Line Element Set (TLE):
1 44010U 14055BR  24324.52677087 -.00000067  00000-0  00000-0 0  9995
2 44010  19.7131 213.2631 4762197  42.7907 345.8496  1.82358706 40885
Source of the keplerian elements: AFSPC